Regional Weather Roundup
Issued by NWS Upton, NY

Current Version | Previous Version | Text Only | Print | Product List | Glossary On
Versions: 1 2 3 4 5 6 7 8 9 10 11 12 13 14 15 16 17 18 19 20 21 22 23 24 25 26 27 28 29 30 31 32 33 34 35 36 37 38 39 40 41 42 43 44 45 46 47 48 49
000
ASUS41 KOKX 091105
RWROKX

REGIONAL WEATHER ROUNDUP
NATIONAL WEATHER SERVICE NEW YORK NY
700 AM EDT WED JUL 09 2014

NOTE: "FAIR" INDICATES FEW OR NO CLOUDS BELOW 12,000 FEET WITH NO
SIGNIFICANT WEATHER AND/OR OBSTRUCTIONS TO VISIBILITY.

NYZ071-072-176-178-NJZ106-104-091200-
NEW YORK CITY METRO AREA


CITY           SKY/WX    TMP DP  RH WIND       PRES   REMARKS
CENTRAL PARK   MOSUNNY   72  65  78 VRB5      29.89R
LAGUARDIA APRT PTSUNNY   74  65  73 SW12      29.85R
KENNEDY INTL   PTSUNNY   72  67  84 W12       29.87R
NEWARK/LIBERTY MOSUNNY   71  66  84 SW7       29.86R
BRNX BOT. GARD   N/A     73  64  73 W3        29.87R
TETERBORO      MOSUNNY   75  65  70 SW7       29.85R
$$

NYZ177-179-078>081-091200-
LONG ISLAND NEW YORK

CITY           SKY/WX    TMP DP  RH WIND       PRES   REMARKS
FARMINGDALE    MOSUNNY   71  66  84 SW9       29.87R
ISLIP          PTSUNNY   73  66  78 SW12      29.85R
SHIRLEY        CLOUDY    72  68  87 SW6       29.87R
WESTHAMPTON    CLOUDY    69  66  90 SW10      29.88R
MONTAUK POINT    N/A     71  66  84 SW8       29.86R
$$

NYZ052-065-067-091200-
HUDSON VALLEY

CITY           SKY/WX    TMP DP  RH WIND       PRES   REMARKS
WHITE PLAINS   SUNNY     71  66  84 W6        29.85R
NEWBURGH       MOSUNNY   68  68 100 W6        29.85
MONTGOMERY     CLOUDY    68  67  96 SW6       29.84R
POUGHKEEPSIE   SUNNY     71  68  90 SW6       29.83R
ALBANY         MOSUNNY   70  64  81 S5        29.80R
$$

NJZ001-105-106-008-010-013-015-019>022-104-091200-
NEW JERSEY

CITY           SKY/WX    TMP DP  RH WIND       PRES   REMARKS
NEWARK/LIBERTY MOSUNNY   71  66  84 SW7       29.86R
TETERBORO      MOSUNNY   75  65  70 SW7       29.85R
CALDWELL         N/A     70  66  87 SW3       29.87R
MORRISTOWN     PTSUNNY   70  66  88 SW5       29.86R
SOMERVILLE     SUNNY     69  65  86 CALM      29.85R
LINDEN         FAIR      72  66  81 W3        29.88R
SUSSEX         CLOUDY    70  66  87 SW5       29.86R FOG
ANDOVER          N/A     67  66  97 CALM      29.87R
TRENTON        SUNNY     70  67  90 SW5       29.87R
MILLVILLE      PTSUNNY   73  70  90 W3        29.88R
ATLANTIC CITY  CLOUDY    72  70  93 CALM      29.88R
WRIGHTSTOWN    PTSUNNY   71  70  99 W1        29.86R
TOMS RIVER     CLOUDY    72  70  94 CALM      29.88S
BELMAR         PTSUNNY   72  66  83 SW6       29.88R
$$

PAZ047>061-062-071-091200-
EASTERN PENNSYLVANIA

CITY           SKY/WX    TMP DP  RH WIND       PRES   REMARKS
PHILADELPHIA   MOSUNNY   73  68  84 VRB3      29.88R
ALLENTOWN      SUNNY     69  65  86 W3        29.87R
SCRANTON       SUNNY     68  65  90 SW3       29.86R
$$

CTZ002-004>006-009-010-012-RIZ004-006-007-MAZ004-011-015-091200-
SOUTHERN NEW ENGLAND
 IN CT

CITY           SKY/WX    TMP DP  RH WIND       PRES   REMARKS
BRADLEY INTL   MOSUNNY   73  66  78 SW3       29.81R
HARTFORD       MOSUNNY   72  66  81 S7        29.82R
DANBURY        SUNNY     69  65  86 CALM      29.86R
WTRBRY/OXFORD  NOT AVBL
BRIDGEPORT     MOSUNNY   72  67  84 SW8       29.85R
MERIDEN        MOSUNNY   72  66  81 S5        29.84R
NEW HAVEN      PTSUNNY   73  66  78 SW5       29.85R
CHESTER        FAIR      70  66  88 SW8       29.86R
GROTON         SUNNY     70  66  87 S6        29.84R
WILLIMANTIC    MOSUNNY   72  66  81 SW5       29.83R

 IN RI

CITY           SKY/WX    TMP DP  RH WIND       PRES   REMARKS
PROVIDENCE     MOSUNNY   73  66  78 SW8       29.83R
BLOCK ISLAND   MOSUNNY   70  64  83 SW17      29.86R
WESTERLY       SUNNY     69  65  86 SW7       29.85R

 IN MA

CITY           SKY/WX    TMP DP  RH WIND       PRES   REMARKS
BOSTON         MOSUNNY   74  66  76 SW14      29.79R
WORCESTER      MOSUNNY   69  65  86 SW13      29.83R
WESTFIELD      SUNNY     70  66  87 S8        29.80R
PROVINCETOWN   PTSUNNY   66  64  94 SW14      29.82R
NANTUCKET      PTSUNNY   69  67  93 SW14      29.87R
$$

ANZ330-335-338-340-345-350-353-355-091200-
COASTAL MARINE OBSERVATIONS


STATION/POSITION TIME  SKY/WX   TEMP    WIND        PRES    VSBY  WAVE
                                AIR SEA DIR/SP/G                  HT/PER
                 (UTC)          (F)     (DEG/KT/KT) (MB)    (MI)  (FT/S)
NY HARB ENTRANCE NOT AVBL
4S FIRE IS       1000               64                N/A           6/ 8
23SW MTP         1100            67 64              1010.9          6/ 8
HUDSON CANYON    1100            71 69  220/ 10/ 12 1011.9          7/ 8
EXECUTION ROCKS  1100            70 65  220/  8/ 10   N/A
WESTERN LI SOUND 1100            70     220/  8/ 12   N/A           0
CENTRAL LI SOUND 1000            71 68  200/ 10/ 12   N/A           1/ 4
EASTERN LI SOUND 1000            69 65  210/  8/ 10   N/A
ROBBINS REEF     1100            71     250/ 10/ 11   N/A
$$


>>>>>>>>>>>>>>>>>>>>>>>>>>>> KEY <<<<<<<<<<<<<<<<<<<<<<<<<<<
>                                                          <
>     SKY/WX - SKY CONDITION/PRESENT WEATHER               <
>     TMP    - TEMPERATURE IN FAHRENHEIT                   <
>     DP     - DEWPOINT IN FAHRENHEIT                      <
>     RH     - RELATIVE HUMIDITY IN PERCENT                <
>     WIND   - DIRECTION AND SPEED IN MPH                  <
>     PRES   - MEAN SEA LEVEL PRESSURE IN INCHES OF HG     <
>     WCI    - WIND CHILL INDEX                            <
>     VSB    - VISIBILITY IN MILES                         <
>     HX     - HEAT INDEX                                  <
>     TC     - TEMPERATURE IN CELSIUS                      <
>     VRB    - VARIABLE WIND DIRECTION                     <
>                                                          <
>>>>>>>>>>>>>>>>>>>>>>>>>>>> KEY <<<<<<<<<<<<<<<<<<<<<<<<<<<





USA.gov is the U.S. government's official web portal to all federal, state and local government web resources and services.